Weather History for KCBF - April, 2013

Change the Weather History Date:

Monday, April 22, 2013

  Actual Average Record
Temperature  
Mean Temperature 43 °F -  
Max Temperature 53 °F 62 °F 80 °F (2009)
Min Temperature 33 °F 44 °F 32 °F (2015)
Degree Days  
Heating Degree Days 22    
Moisture  
Dew Point 45 °F    
Average Humidity 98    
Maximum Humidity 100    
Minimum Humidity 87    
Precipitation  
Precipitation 1.13 in - - ()
Sea Level Pressure  
Sea Level Pressure 30.05 in    
Wind  
Wind Speed 8 mph (NNE)    
Max Wind Speed 24 mph    
Max Gust Speed 30 mph    
Visibility 6 miles    
Events Rain , Snow    
Averages and records for this station are not official NWS values.
T = Trace of Precipitation, MM = Missing Value Source: NWS Daily Summary

Daily Weather History Graph

Daily Weather History Graph

Search for Another Location

Airport or City:

Trip Planner

Search our weather history database for the weather conditions in past years. The results will help you decide how hot, cold, wet, or windy it might be!

Date:

Astronomy

Apr. 22, 2013 Rise Set
Actual Time 6:32 AM CDT 8:11 PM CDT
Civil Twilight 6:03 AM CDT 8:40 PM CDT
Nautical Twilight 5:28 AM CDT 9:15 PM CDT
Astronomical Twilight 4:50 AM CDT 9:53 PM CDT
Moon 4:59 PM CDT (4/22) 4:29 AM CDT (4/22)
Length of Visible Light 14h 36m
Length of Day
13h 38m
Waxing Gibbous, 88% of the Moon is Illuminated
Apr 22
Waxing Gibbous
Apr 25
Full
May 2
Last Quarter
May 9
New
May 17
First Quarter

Hourly Weather History & Observations

Time (CDT) Temp. Windchill Dew Point Humidity Pressure Visibility Wind Dir Wind Speed Gust Speed Precip Events Conditions
12:15 AM 50.0 °F - 50.0 °F 100% 30.11 in 10.0 mi ESE 5.8 mph - N/A   Mostly Cloudy
12:35 AM 50.0 °F - 50.0 °F 100% 30.11 in 10.0 mi SE 4.6 mph - N/A   Scattered Clouds
12:55 AM 50.0 °F - 50.0 °F 100% 30.11 in 10.0 mi SE 5.8 mph - N/A   Mostly Cloudy
1:15 AM 50.0 °F - 50.0 °F 100% 30.11 in 9.0 mi SSE 5.8 mph - N/A   Overcast
1:35 AM 50.0 °F - 50.0 °F 100% 30.10 in 3.0 mi SSE 4.6 mph - N/A Rain Rain
1:55 AM 50.0 °F - 50.0 °F 100% 30.09 in 10.0 mi Calm Calm - 0.13 in   Overcast
2:15 AM 50.0 °F - 50.0 °F 100% 30.09 in 10.0 mi Calm Calm - N/A   Overcast
2:35 AM 50.0 °F - 50.0 °F 100% 30.08 in 10.0 mi Calm Calm - N/A   Overcast
2:55 AM 48.2 °F - 48.2 °F 100% 30.08 in 5.0 mi NW 5.8 mph - N/A   Overcast
3:15 AM 48.2 °F - 48.2 °F 100% 30.08 in 0.5 mi NW 3.5 mph - N/A   Overcast
3:35 AM 46.4 °F 42.4 °F 46.4 °F 100% 30.08 in 0.8 mi NW 8.1 mph - N/A   Overcast
3:55 AM 46.4 °F 42.9 °F 46.4 °F 100% 30.08 in 1.0 mi NNW 6.9 mph - N/A   Overcast
4:15 AM 46.4 °F 41.5 °F 46.4 °F 100% 30.06 in 1.8 mi NNE 10.4 mph - N/A   Overcast
4:35 AM 46.4 °F 42.4 °F 46.4 °F 100% 30.06 in 2.0 mi NE 8.1 mph - N/A   Light Drizzle
4:55 AM 46.4 °F 43.5 °F 46.4 °F 100% 30.06 in 2.5 mi East 5.8 mph - 0.01 in   Overcast
5:15 AM 46.4 °F 42.4 °F 46.4 °F 100% 30.04 in 4.0 mi East 8.1 mph - N/A   Overcast
5:35 AM 46.4 °F 43.5 °F 46.4 °F 100% 30.04 in 2.5 mi ESE 5.8 mph - N/A   Overcast
5:55 AM 46.4 °F 44.3 °F 46.4 °F 100% 30.04 in 2.0 mi East 4.6 mph - N/A   Overcast
6:15 AM 48.2 °F - 48.2 °F 100% 30.04 in 4.0 mi East 3.5 mph - N/A   Overcast
6:35 AM 48.2 °F - 48.2 °F 100% 30.03 in 5.0 mi ESE 6.9 mph - N/A   Mostly Cloudy
6:55 AM 48.2 °F - 48.2 °F 100% 30.03 in 7.0 mi ESE 6.9 mph - N/A   Partly Cloudy
7:15 AM 48.2 °F - 48.2 °F 100% 30.03 in 10.0 mi ESE 9.2 mph - N/A   Mostly Cloudy
7:35 AM 48.2 °F - 48.2 °F 100% 30.05 in 10.0 mi SSE 6.9 mph - N/A   Overcast
7:55 AM 48.2 °F - 48.2 °F 100% 30.05 in 5.0 mi Calm Calm - 0.01 in Rain Light Rain
8:15 AM 48.2 °F - 48.2 °F 100% 30.06 in 3.0 mi South 6.9 mph - N/A Rain Light Rain
8:35 AM 48.2 °F - 48.2 °F 100% 30.06 in 2.5 mi SSW 5.8 mph - N/A Rain Light Rain
8:55 AM 48.2 °F - 48.2 °F 100% 30.06 in 3.0 mi Calm Calm - 0.12 in Rain Rain
9:15 AM 48.2 °F - 48.2 °F 100% 30.05 in 2.0 mi North 3.5 mph - N/A Rain Rain
9:35 AM 48.2 °F - 48.2 °F 100% 30.06 in 0.8 mi Calm Calm - N/A Rain Rain
9:55 AM 48.2 °F - 48.2 °F 100% 30.05 in 0.5 mi Calm Calm - 0.20 in Rain Rain
10:15 AM 48.2 °F - 48.2 °F 100% 30.05 in 1.0 mi SSE 5.8 mph - N/A Rain Light Rain
10:35 AM 48.2 °F - 48.2 °F 100% 30.03 in 0.8 mi ESE 5.8 mph - N/A Rain Light Rain
10:55 AM 48.2 °F - 48.2 °F 100% 30.02 in 4.0 mi ESE 10.4 mph - 0.06 in Rain Light Rain
11:15 AM 50.0 °F - 50.0 °F 100% 30.01 in 6.0 mi ESE 10.4 mph - N/A   Light Drizzle
11:35 AM 50.0 °F - 50.0 °F 100% 30.01 in 8.0 mi SE 11.5 mph - N/A   Light Drizzle
11:55 AM 50.0 °F - 50.0 °F 100% 30.00 in 10.0 mi SE 8.1 mph - N/A   Light Drizzle
12:15 PM 50.0 °F - 50.0 °F 100% 29.99 in 9.0 mi ESE 8.1 mph 13.8 mph N/A   Light Drizzle
12:35 PM 51.8 °F - 50.0 °F 94% 29.98 in 10.0 mi SE 10.4 mph - N/A   Light Drizzle
12:55 PM 53.6 °F - 50.0 °F 88% 29.97 in 10.0 mi SSE 11.5 mph - 0.01 in   Clear
1:15 PM 53.6 °F - 50.0 °F 88% 29.96 in 10.0 mi SSE 11.5 mph - N/A   Mostly Cloudy
1:35 PM 53.6 °F - 50.0 °F 88% 29.96 in 5.0 mi SSE 8.1 mph - N/A Rain Light Rain
1:55 PM 53.6 °F - 51.8 °F 94% 29.96 in 3.0 mi South 5.8 mph - 0.05 in Rain Light Rain
2:15 PM 53.6 °F - 51.8 °F 94% 29.95 in 3.0 mi South 3.5 mph - N/A Rain Light Rain
2:35 PM 53.6 °F - 53.6 °F 100% 29.94 in 7.0 mi NNW 3.5 mph - N/A   Light Drizzle
2:55 PM 51.8 °F - 51.8 °F 100% 29.94 in 4.0 mi North 5.8 mph - 0.05 in   Light Drizzle
3:15 PM 51.8 °F - 51.8 °F 100% 29.94 in 3.0 mi NW 5.8 mph - N/A Rain Light Rain
3:35 PM 51.8 °F - 51.8 °F 100% 29.95 in 1.8 mi WNW 11.5 mph - N/A Rain Rain
3:55 PM 50.0 °F - 50.0 °F 100% 29.96 in 1.5 mi WNW 10.4 mph - 0.20 in Rain Rain
4:15 PM 50.0 °F - 50.0 °F 100% 29.96 in 2.0 mi NW 6.9 mph - N/A Rain Heavy Rain
4:35 PM 44.6 °F 36.9 °F 44.6 °F 100% 29.97 in 2.0 mi WNW 18.4 mph 29.9 mph N/A Rain Heavy Rain
4:55 PM 41.0 °F 33.5 °F 41.0 °F 100% 29.98 in 5.0 mi NW 13.8 mph 24.2 mph 0.17 in Rain Light Rain
5:15 PM 41.0 °F 34.3 °F 41.0 °F 100% 29.99 in 6.0 mi NNW 11.5 mph 21.9 mph N/A Rain Light Rain
5:35 PM 39.2 °F 29.8 °F 39.2 °F 100% 30.00 in 5.0 mi NNW 18.4 mph - N/A Rain Rain
5:55 PM 39.2 °F 29.8 °F 39.2 °F 100% 30.01 in 4.0 mi NW 18.4 mph - 0.06 in Rain Rain
6:15 PM 37.4 °F 28.5 °F 37.4 °F 100% 30.04 in 3.0 mi NW 15.0 mph 23.0 mph N/A Rain Rain
6:35 PM 35.6 °F 25.9 °F 35.6 °F 100% 30.05 in 4.0 mi NW 16.1 mph 25.3 mph N/A Rain Rain
6:55 PM 35.6 °F 25.2 °F 35.6 °F 100% 30.06 in 3.0 mi NNW 18.4 mph 25.3 mph 0.06 in Rain Light Rain
7:15 PM 35.6 °F 27.5 °F 35.6 °F 100% 30.07 in 10.0 mi NNW 11.5 mph 18.4 mph N/A   Overcast
7:35 PM 35.6 °F 27.1 °F 35.6 °F 100% 30.08 in 6.0 mi NNW 12.7 mph - N/A   Overcast
7:55 PM 35.6 °F 27.1 °F 35.6 °F 100% 30.09 in 10.0 mi NNW 12.7 mph 20.7 mph N/A   Overcast
8:15 PM 35.6 °F 25.5 °F 35.6 °F 100% 30.10 in 10.0 mi North 17.3 mph 25.3 mph N/A   Overcast
8:35 PM 35.6 °F 25.2 °F 33.8 °F 93% 30.11 in 10.0 mi North 18.4 mph 25.3 mph N/A   Overcast
8:55 PM 35.6 °F 25.2 °F 33.8 °F 93% 30.12 in 10.0 mi North 18.4 mph 25.3 mph N/A   Overcast
9:15 PM 35.6 °F 26.2 °F 33.8 °F 93% 30.13 in 10.0 mi North 15.0 mph 25.3 mph N/A   Overcast
9:35 PM 35.6 °F 25.2 °F 33.8 °F 93% 30.15 in 10.0 mi North 18.4 mph 24.2 mph N/A Rain Light Rain
9:55 PM 33.8 °F 22.5 °F 32.0 °F 93% 30.16 in 9.0 mi North 19.6 mph 26.5 mph N/A   Overcast
10:15 PM 33.8 °F 22.5 °F 32.0 °F 93% 30.15 in 5.0 mi North 19.6 mph 27.6 mph N/A   Overcast
10:35 PM 33.8 °F 22.8 °F 32.0 °F 93% 30.14 in 10.0 mi North 18.4 mph 26.5 mph N/A Snow Light Snow
10:55 PM 33.8 °F 23.5 °F 32.0 °F 93% 30.13 in 10.0 mi North 16.1 mph 27.6 mph N/A Snow Light Snow
11:15 PM 33.8 °F 22.5 °F 32.0 °F 93% 30.15 in 10.0 mi North 19.6 mph 27.6 mph N/A Snow Light Snow
11:35 PM 33.8 °F 21.3 °F 30.2 °F 87% 30.16 in 10.0 mi North 24.2 mph 29.9 mph N/A Snow Light Snow
11:55 PM 33.8 °F 21.9 °F 30.2 °F 87% 30.16 in 10.0 mi North 21.9 mph 29.9 mph N/A   Overcast